AUA77X UKBB-UTDD

Flight info

Callsign AUA77X
Flight time N/A
Altitude 33000
Route BASOR1Z BASOR M856 SULUM DCT VAPEL DCT BOMKI DCT KUGOS/N0484F390 DCT KARDE DCT ROLIN N644 LAGAS M747 LUSAL N701 LARGI B701 TUGTA A909 BABUM A477 AKRAM R226 MANAT/K0889F390 Z777 INDUD Q169 SOPNO SOPNO1E
Aircraft B772/M-SDE2E3FGHIRWXY/LB1

Departure

Time N/A
Airport Boryspil International Airport (UKBB)

Arrival

Time 2026-04-24 22:21
Airport Dushanbe International Airport (UTDD)
Time Latitude Longitude Altitude Speed Heading
2026-04-24 18:54 44.87699 31.93302 32967 ft 556 kts 167°
2026-04-24 18:55 44.76337 31.96537 32985 ft 555 kts 168°
2026-04-24 18:56 44.68824 31.98669 32978 ft 554 kts 168°
2026-04-24 18:56 44.61374 32.00778 32974 ft 554 kts 168°
2026-04-24 18:57 44.54104 32.04055 32991 ft 546 kts 150°
2026-04-24 18:57 44.47735 32.09693 32974 ft 537 kts 134°
2026-04-24 18:58 44.42199 32.16572 32978 ft 537 kts 133°
2026-04-24 18:58 44.36690 32.23406 32981 ft 539 kts 134°
2026-04-24 18:59 44.31138 32.30173 33003 ft 541 kts 135°
2026-04-24 18:59 44.25430 32.37056 32961 ft 543 kts 135°
2026-04-24 19:00 44.19744 32.43885 32970 ft 543 kts 135°
2026-04-24 19:00 44.14027 32.50743 33001 ft 542 kts 135°
2026-04-24 19:01 44.08303 32.57597 32988 ft 542 kts 135°
2026-04-24 19:01 44.02584 32.64428 32973 ft 542 kts 135°
2026-04-24 19:02 43.97835 32.70085 32986 ft 541 kts 135°
2026-04-24 19:02 43.91195 32.77975 32994 ft 541 kts 136°
2026-04-24 19:03 43.85478 32.84748 32988 ft 540 kts 136°
2026-04-24 19:03 43.79765 32.91500 33009 ft 540 kts 136°
2026-04-24 19:04 43.74091 32.98187 32990 ft 539 kts 137°
2026-04-24 19:04 43.68464 33.04803 33001 ft 538 kts 137°
2026-04-24 19:05 43.62759 33.11492 33002 ft 538 kts 137°
2026-04-24 19:05 43.57054 33.18166 32999 ft 537 kts 138°
2026-04-24 19:06 43.51356 33.24812 33005 ft 536 kts 137°
2026-04-24 19:06 43.45701 33.31393 33006 ft 536 kts 137°
2026-04-24 19:07 43.40009 33.38000 33017 ft 535 kts 138°
2026-04-24 19:07 43.35277 33.43479 33016 ft 535 kts 139°
2026-04-24 19:08 43.28620 33.51168 33015 ft 535 kts 139°
2026-04-24 19:08 43.22922 33.57733 33014 ft 535 kts 139°
2026-04-24 19:09 43.17262 33.64235 33020 ft 534 kts 139°
2026-04-24 19:09 43.11573 33.70755 33021 ft 533 kts 139°
2026-04-24 19:10 43.05885 33.77258 33019 ft 533 kts 139°
2026-04-24 19:10 43.00199 33.83744 33027 ft 532 kts 139°
2026-04-24 19:11 42.94556 33.90164 33031 ft 532 kts 139°
2026-04-24 19:11 42.88867 33.96622 33036 ft 532 kts 140°
2026-04-24 19:12 42.83261 34.02972 33025 ft 529 kts 139°
2026-04-24 19:12 42.78350 34.10344 33038 ft 525 kts 122°
2026-04-24 19:13 42.75459 34.17555 33036 ft 520 kts 109°
2026-04-24 19:13 42.72531 34.28250 33038 ft 520 kts 108°
2026-04-24 19:14 42.70004 34.37475 33037 ft 521 kts 108°
2026-04-24 19:14 42.67416 34.46692 33052 ft 523 kts 109°
2026-04-24 19:15 42.64788 34.55922 33043 ft 524 kts 109°
2026-04-24 19:15 42.62160 34.65103 33042 ft 526 kts 109°
2026-04-24 19:16 42.58176 34.78985 33048 ft 527 kts 110°
2026-04-24 19:16 42.55507 34.88249 33040 ft 527 kts 110°
2026-04-24 19:17 42.52829 34.97510 33050 ft 527 kts 110°
2026-04-24 19:17 42.50198 35.06575 33057 ft 528 kts 111°
2026-04-24 19:18 42.47502 35.15832 33032 ft 528 kts 111°
2026-04-24 19:18 42.44798 35.25081 33050 ft 528 kts 111°
2026-04-24 19:19 42.42101 35.34271 33055 ft 528 kts 111°
2026-04-24 19:19 42.39375 35.43533 33047 ft 529 kts 112°
2026-04-24 19:20 42.36645 35.52770 33036 ft 529 kts 112°
2026-04-24 19:20 42.33926 35.61938 33051 ft 529 kts 112°
2026-04-24 19:21 42.31179 35.71169 33055 ft 529 kts 113°
2026-04-24 19:21 42.28423 35.80395 33039 ft 530 kts 113°
2026-04-24 19:22 42.25659 35.89615 33051 ft 530 kts 113°
2026-04-24 19:22 42.22906 35.98769 33049 ft 530 kts 114°
2026-04-24 19:23 42.20167 36.07843 33056 ft 530 kts 114°
2026-04-24 19:23 42.17380 36.17045 33054 ft 530 kts 114°
2026-04-24 19:24 42.14585 36.26238 33058 ft 530 kts 114°
2026-04-24 19:24 42.11800 36.35370 33057 ft 530 kts 114°
2026-04-24 19:25 42.08988 36.44553 33054 ft 531 kts 114°
2026-04-24 19:25 42.06169 36.53730 33064 ft 531 kts 114°
2026-04-24 19:26 42.03342 36.62904 33057 ft 531 kts 115°
2026-04-24 19:26 42.00986 36.70523 33065 ft 531 kts 115°
2026-04-24 19:27 41.97688 36.81155 33060 ft 531 kts 115°
2026-04-24 19:27 41.94837 36.90313 33058 ft 531 kts 115°
2026-04-24 19:28 41.92484 36.97936 33059 ft 532 kts 112°
2026-04-24 19:28 41.90638 37.07426 33064 ft 535 kts 100°
2026-04-24 19:29 41.90009 37.24010 33057 ft 537 kts 91°
2026-04-24 19:30 41.89930 37.34046 33078 ft 539 kts 91°
2026-04-24 19:30 41.89822 37.42423 33064 ft 541 kts 92°
2026-04-24 19:31 41.89653 37.52531 33059 ft 542 kts 92°
2026-04-24 19:31 41.89465 37.62656 33051 ft 543 kts 92°
2026-04-24 19:32 41.89271 37.72802 33071 ft 544 kts 92°
2026-04-24 19:32 41.89071 37.82889 33067 ft 545 kts 92°
2026-04-24 19:33 41.88862 37.93055 33060 ft 545 kts 92°
2026-04-24 19:33 41.88648 38.03088 33042 ft 545 kts 93°
2026-04-24 19:34 41.88421 38.13256 33069 ft 545 kts 93°
2026-04-24 19:34 41.88185 38.23363 33047 ft 546 kts 93°
2026-04-24 19:35 41.87940 38.33539 33047 ft 545 kts 94°
2026-04-24 19:35 41.87686 38.43706 33023 ft 545 kts 94°
2026-04-24 19:36 41.87425 38.53796 33052 ft 545 kts 94°
2026-04-24 19:36 41.87153 38.63954 33060 ft 545 kts 94°
2026-04-24 19:37 41.86872 38.74122 33058 ft 546 kts 94°
2026-04-24 19:37 41.86581 38.84301 33062 ft 546 kts 94°
2026-04-24 19:38 41.86282 38.94495 33062 ft 547 kts 95°
2026-04-24 19:38 41.85977 39.04548 33086 ft 548 kts 95°
2026-04-24 19:39 41.85660 39.14708 33077 ft 549 kts 95°
2026-04-24 19:39 41.85332 39.24941 33065 ft 550 kts 95°
2026-04-24 19:40 41.84995 39.35190 33061 ft 550 kts 95°
2026-04-24 19:40 41.84648 39.45437 33076 ft 550 kts 95°
2026-04-24 19:41 41.84294 39.55627 33064 ft 551 kts 95°
2026-04-24 19:41 41.83928 39.65888 33101 ft 551 kts 95°
2026-04-24 19:42 41.83554 39.76159 33061 ft 551 kts 96°
2026-04-24 19:42 41.83169 39.86436 33074 ft 552 kts 96°
2026-04-24 19:43 41.82778 39.96638 33078 ft 552 kts 96°
2026-04-24 19:43 41.82382 40.06755 33073 ft 552 kts 96°
2026-04-24 19:44 41.81970 40.17026 33070 ft 552 kts 96°
2026-04-24 19:44 41.81550 40.27296 33090 ft 552 kts 96°
2026-04-24 19:45 41.81122 40.37496 33079 ft 552 kts 96°
2026-04-24 19:45 41.80683 40.47768 33078 ft 552 kts 96°
2026-04-24 19:46 41.80236 40.58036 33076 ft 552 kts 96°
2026-04-24 19:46 41.79778 40.68300 33077 ft 552 kts 97°
2026-04-24 19:47 41.79284 40.78488 33078 ft 551 kts 97°
2026-04-24 19:47 41.78768 40.88739 33084 ft 552 kts 97°
2026-04-24 19:48 41.78247 40.99005 33062 ft 552 kts 97°
2026-04-24 19:48 41.77462 41.14243 33073 ft 552 kts 97°
2026-04-24 19:49 41.76373 41.34751 33085 ft 552 kts 97°
2026-04-24 19:50 41.75251 41.55200 33096 ft 553 kts 98°
2026-04-24 19:51 41.74380 41.70623 33101 ft 554 kts 98°
2026-04-24 19:52 41.73487 41.86084 33079 ft 556 kts 98°
2026-04-24 19:52 41.72881 41.96343 33088 ft 557 kts 98°
2026-04-24 19:53 41.72272 42.06558 33091 ft 559 kts 99°
2026-04-24 19:54 41.71331 42.22170 33080 ft 562 kts 99°
2026-04-24 19:54 41.70696 42.32623 33102 ft 565 kts 99°
2026-04-24 19:55 41.70159 42.41347 33123 ft 567 kts 99°
2026-04-24 19:55 41.69389 42.53607 33095 ft 570 kts 99°
2026-04-24 19:56 41.68718 42.64176 33093 ft 570 kts 100°
2026-04-24 19:56 41.68036 42.74754 33113 ft 572 kts 100°
2026-04-24 19:57 41.67342 42.85371 33108 ft 574 kts 100°
2026-04-24 19:57 41.66627 42.95927 33117 ft 574 kts 101°
2026-04-24 19:58 41.65896 43.06404 33088 ft 574 kts 101°
2026-04-24 19:58 41.65145 43.17044 33142 ft 576 kts 101°
2026-04-24 19:59 41.64386 43.27718 33124 ft 577 kts 101°
2026-04-24 19:59 41.63617 43.38407 33123 ft 578 kts 101°
2026-04-24 20:00 41.62843 43.49026 33107 ft 577 kts 101°
2026-04-24 20:00 41.62056 43.59709 33117 ft 578 kts 101°
2026-04-24 20:01 41.61262 43.70397 33122 ft 578 kts 101°
2026-04-24 20:01 41.60459 43.81083 33106 ft 577 kts 101°
2026-04-24 20:02 41.59786 43.89937 33089 ft 575 kts 101°
2026-04-24 20:02 41.58840 44.02209 33077 ft 574 kts 102°
2026-04-24 20:03 41.58013 44.12811 33078 ft 573 kts 102°
2026-04-24 20:03 41.56981 44.23259 33070 ft 568 kts 108°
2026-04-24 20:04 41.54825 44.33262 33042 ft 558 kts 117°
2026-04-24 20:04 41.52305 44.43051 33073 ft 558 kts 116°
2026-04-24 20:05 41.49840 44.52802 33080 ft 559 kts 116°
2026-04-24 20:05 41.47389 44.62651 33058 ft 560 kts 116°
2026-04-24 20:06 41.44932 44.72512 33084 ft 561 kts 116°
2026-04-24 20:06 41.42459 44.82371 33064 ft 561 kts 116°
2026-04-24 20:07 41.40394 44.90562 33021 ft 561 kts 116°
2026-04-24 20:07 41.37546 45.01820 33040 ft 557 kts 116°
2026-04-24 20:08 41.35066 45.11576 33050 ft 555 kts 116°
2026-04-24 20:08 41.32582 45.21282 33026 ft 553 kts 116°
2026-04-24 20:09 41.30100 45.30945 33054 ft 551 kts 116°
2026-04-24 20:09 41.27616 45.40573 33055 ft 551 kts 116°
2026-04-24 20:10 41.25140 45.50141 33054 ft 551 kts 116°
2026-04-24 20:10 41.22639 45.59776 33047 ft 552 kts 116°
2026-04-24 20:11 41.20121 45.69413 33048 ft 554 kts 116°
2026-04-24 20:11 41.17560 45.79069 33047 ft 555 kts 116°
2026-04-24 20:12 41.14987 45.88729 33048 ft 556 kts 116°
2026-04-24 20:12 41.12423 45.98335 33034 ft 557 kts 116°
2026-04-24 20:13 41.09873 46.07864 33045 ft 557 kts 116°
2026-04-24 20:13 41.07272 46.17542 33029 ft 558 kts 116°
2026-04-24 20:14 41.04664 46.27216 33029 ft 558 kts 116°
2026-04-24 20:14 41.02059 46.36907 33035 ft 559 kts 116°
2026-04-24 20:15 40.99492 46.46548 33001 ft 559 kts 115°
2026-04-24 20:15 40.96905 46.56234 33010 ft 557 kts 115°
2026-04-24 20:16 40.94310 46.65887 33000 ft 557 kts 115°
2026-04-24 20:16 40.91708 46.75521 32954 ft 556 kts 115°
2026-04-24 20:17 40.89107 46.85115 32985 ft 553 kts 116°
2026-04-24 20:17 40.85196 46.99342 32967 ft 551 kts 116°
2026-04-24 20:18 40.82616 47.08692 32961 ft 549 kts 116°
2026-04-24 20:18 40.80002 47.18141 32962 ft 547 kts 116°
2026-04-24 20:19 40.77383 47.27565 32961 ft 546 kts 116°
2026-04-24 20:19 40.74763 47.36965 32934 ft 546 kts 116°
2026-04-24 20:20 40.72135 47.46342 32939 ft 545 kts 116°
2026-04-24 20:20 40.69508 47.55638 32949 ft 544 kts 116°
2026-04-24 20:21 40.66861 47.64978 32920 ft 544 kts 116°
2026-04-24 20:21 40.64209 47.74314 32923 ft 544 kts 116°
2026-04-24 20:22 40.61551 47.83643 32927 ft 544 kts 116°
2026-04-24 20:22 40.59107 47.93099 32908 ft 550 kts 109°
2026-04-24 20:23 40.57814 48.02848 32901 ft 556 kts 97°
2026-04-24 20:23 40.57395 48.13004 32903 ft 556 kts 96°
2026-04-24 20:24 40.57014 48.23153 32914 ft 555 kts 96°
2026-04-24 20:24 40.56573 48.33291 32900 ft 555 kts 97°
2026-04-24 20:25 40.56091 48.43420 32894 ft 554 kts 96°
2026-04-24 20:25 40.55773 48.49962 32904 ft 554 kts 96°
2026-04-24 20:26 40.55314 48.59348 32892 ft 553 kts 96°
2026-04-24 20:26 40.54816 48.69420 32907 ft 551 kts 97°
2026-04-24 20:27 40.54311 48.79473 32914 ft 551 kts 97°
2026-04-24 20:27 40.53801 48.89438 32905 ft 550 kts 96°
2026-04-24 20:28 40.53280 48.99454 32920 ft 549 kts 96°
2026-04-24 20:28 40.52758 49.09318 32915 ft 548 kts 96°
2026-04-24 20:29 40.52222 49.19299 32922 ft 547 kts 96°
2026-04-24 20:29 40.51679 49.29264 32898 ft 546 kts 96°
2026-04-24 20:30 40.51132 49.39131 32927 ft 545 kts 96°
2026-04-24 20:30 40.50578 49.49053 32938 ft 544 kts 96°
2026-04-24 20:31 40.50018 49.58975 32932 ft 544 kts 96°
2026-04-24 20:31 40.49450 49.68879 32924 ft 544 kts 97°
2026-04-24 20:32 40.48873 49.78781 32910 ft 543 kts 97°
2026-04-24 20:32 40.48289 49.88675 32916 ft 543 kts 97°
2026-04-24 20:33 40.47697 49.98566 32909 ft 543 kts 97°
2026-04-24 20:33 40.46959 50.08297 32913 ft 542 kts 102°
2026-04-24 20:34 40.45657 50.17972 32897 ft 541 kts 103°
2026-04-24 20:34 40.44290 50.27683 32917 ft 541 kts 103°
2026-04-24 20:35 40.42949 50.37406 32921 ft 542 kts 103°
2026-04-24 20:35 40.41631 50.47085 32921 ft 543 kts 103°
2026-04-24 20:36 40.40299 50.56832 32916 ft 543 kts 103°
2026-04-24 20:36 40.38957 50.66567 32923 ft 542 kts 103°
2026-04-24 20:37 40.37606 50.76295 32927 ft 542 kts 103°
2026-04-24 20:37 40.36247 50.86014 32927 ft 542 kts 103°
2026-04-24 20:38 40.34889 50.95659 32922 ft 541 kts 103°
2026-04-24 20:38 40.33540 51.05193 32926 ft 540 kts 103°
2026-04-24 20:39 40.32164 51.14854 32926 ft 539 kts 103°
2026-04-24 20:39 40.30781 51.24500 32922 ft 538 kts 103°
2026-04-24 20:40 40.29392 51.34127 32928 ft 537 kts 103°
2026-04-24 20:40 40.28010 51.43661 32918 ft 536 kts 103°
2026-04-24 20:41 40.26612 51.53238 32921 ft 535 kts 103°
2026-04-24 20:41 40.25208 51.62810 32930 ft 535 kts 103°
2026-04-24 20:42 40.23798 51.72367 32922 ft 534 kts 103°
2026-04-24 20:42 40.22383 51.81913 32920 ft 534 kts 104°
2026-04-24 20:43 40.20971 51.91378 32920 ft 534 kts 104°
2026-04-24 20:43 40.19563 52.00762 32921 ft 534 kts 104°
2026-04-24 20:44 40.18126 52.10284 32917 ft 533 kts 104°
2026-04-24 20:44 40.16684 52.19783 32913 ft 532 kts 104°
2026-04-24 20:45 40.15236 52.29269 32921 ft 532 kts 104°
2026-04-24 20:45 40.13792 52.38671 32919 ft 531 kts 104°
2026-04-24 20:46 40.12333 52.48121 32908 ft 530 kts 104°
2026-04-24 20:46 40.10870 52.57543 32911 ft 529 kts 104°
2026-04-24 20:47 40.09402 52.66945 32915 ft 528 kts 104°
2026-04-24 20:47 40.07938 52.76267 32915 ft 527 kts 104°
2026-04-24 20:48 40.06459 52.85631 32908 ft 526 kts 104°
2026-04-24 20:48 40.04976 52.94984 32912 ft 526 kts 104°
2026-04-24 20:49 40.03626 53.04235 32918 ft 527 kts 100°
2026-04-24 20:49 40.02691 53.13719 32915 ft 528 kts 99°
2026-04-24 20:50 40.01799 53.23157 32917 ft 528 kts 99°
2026-04-24 20:50 40.00867 53.32655 32906 ft 528 kts 99°
2026-04-24 20:51 39.99908 53.42146 32898 ft 528 kts 99°
2026-04-24 20:51 39.98935 53.51650 32905 ft 529 kts 99°
2026-04-24 20:52 39.97962 53.61095 32874 ft 529 kts 99°
2026-04-24 20:52 39.96976 53.70606 32893 ft 529 kts 99°
2026-04-24 20:53 39.95985 53.80096 32893 ft 528 kts 99°
2026-04-24 20:53 39.94987 53.89570 32896 ft 527 kts 99°
2026-04-24 20:54 39.93989 53.98969 32895 ft 527 kts 99°
2026-04-24 20:54 39.92997 54.08241 32888 ft 526 kts 99°
2026-04-24 20:55 39.91981 54.17666 32903 ft 524 kts 99°
2026-04-24 20:55 39.90960 54.27054 32895 ft 523 kts 99°
2026-04-24 20:56 39.89942 54.36364 32887 ft 522 kts 100°
2026-04-24 20:56 39.88844 54.45687 32886 ft 520 kts 104°
2026-04-24 20:57 39.86970 54.54727 32899 ft 516 kts 109°
2026-04-24 20:57 39.84978 54.63704 32899 ft 516 kts 108°
2026-04-24 20:58 39.83173 54.72691 32891 ft 518 kts 102°
2026-04-24 20:58 39.82421 54.82022 32879 ft 520 kts 91°
2026-04-24 20:59 39.82721 54.91428 32887 ft 521 kts 88°
2026-04-24 20:59 39.83087 55.00706 32881 ft 522 kts 88°
2026-04-24 21:00 39.83375 55.10137 32883 ft 522 kts 89°
2026-04-24 21:00 39.83673 55.19526 32881 ft 523 kts 89°
2026-04-24 21:01 39.83972 55.28988 32877 ft 524 kts 89°
2026-04-24 21:01 39.84263 55.38455 32874 ft 524 kts 89°
2026-04-24 21:02 39.84543 55.47862 32872 ft 524 kts 89°
2026-04-24 21:02 39.84816 55.57335 32875 ft 524 kts 89°
2026-04-24 21:03 39.85081 55.66814 32881 ft 524 kts 89°
2026-04-24 21:03 39.85339 55.76295 32883 ft 524 kts 89°
2026-04-24 21:04 39.85589 55.85777 32875 ft 524 kts 89°
2026-04-24 21:04 39.85830 55.95194 32883 ft 524 kts 89°
2026-04-24 21:05 39.86062 56.04537 32879 ft 524 kts 89°
2026-04-24 21:05 39.86289 56.14017 32886 ft 524 kts 89°
2026-04-24 21:06 39.86510 56.23488 32881 ft 523 kts 90°
2026-04-24 21:06 39.86728 56.32956 32883 ft 523 kts 90°
2026-04-24 21:07 39.86941 56.42354 32881 ft 523 kts 90°
2026-04-24 21:07 39.87147 56.51804 32889 ft 522 kts 90°
2026-04-24 21:08 39.87346 56.61254 32889 ft 522 kts 90°
2026-04-24 21:08 39.87536 56.70694 32882 ft 522 kts 90°
2026-04-24 21:09 39.87717 56.80066 32893 ft 521 kts 90°
2026-04-24 21:09 39.87892 56.89500 32887 ft 521 kts 90°
2026-04-24 21:10 39.88059 56.98933 32884 ft 521 kts 90°
2026-04-24 21:10 39.88216 57.08205 32893 ft 521 kts 90°
2026-04-24 21:11 39.88367 57.17581 32879 ft 522 kts 90°
2026-04-24 21:11 39.88511 57.27028 32881 ft 522 kts 90°
2026-04-24 21:12 39.88626 57.34882 32889 ft 522 kts 90°
2026-04-24 21:12 39.88778 57.45947 32886 ft 523 kts 90°
2026-04-24 21:13 39.88899 57.55363 32886 ft 524 kts 91°
2026-04-24 21:13 39.89013 57.64855 32887 ft 525 kts 91°
2026-04-24 21:14 39.89120 57.74362 32886 ft 525 kts 91°
2026-04-24 21:14 39.89219 57.83874 32888 ft 526 kts 91°
2026-04-24 21:15 39.89311 57.93393 32871 ft 526 kts 91°
2026-04-24 21:15 39.89392 58.02689 32884 ft 526 kts 91°
2026-04-24 21:16 39.89470 58.12213 32886 ft 526 kts 91°
2026-04-24 21:16 39.89548 58.21736 32888 ft 526 kts 90°
2026-04-24 21:17 39.89652 58.31253 32888 ft 526 kts 90°
2026-04-24 21:17 39.89738 58.39165 32889 ft 526 kts 90°
2026-04-24 21:18 39.89842 58.50223 32886 ft 525 kts 90°
2026-04-24 21:18 39.89920 58.59732 32881 ft 525 kts 90°
2026-04-24 21:19 39.89990 58.69246 32889 ft 525 kts 90°
2026-04-24 21:19 39.90053 58.78762 32888 ft 526 kts 91°
2026-04-24 21:20 39.90132 58.92978 32892 ft 526 kts 91°
2026-04-24 21:21 39.90176 59.02354 32887 ft 526 kts 91°
2026-04-24 21:21 39.90210 59.11879 32883 ft 526 kts 91°
2026-04-24 21:22 39.90211 59.21349 32887 ft 526 kts 91°
2026-04-24 21:22 39.90205 59.30875 32888 ft 526 kts 91°
2026-04-24 21:23 39.90192 59.40401 32888 ft 526 kts 91°
2026-04-24 21:23 39.90149 59.49937 32881 ft 526 kts 91°
2026-04-24 21:24 39.90094 59.59470 32875 ft 526 kts 91°
2026-04-24 21:24 39.90035 59.68933 32883 ft 526 kts 91°
2026-04-24 21:25 39.89970 59.78460 32885 ft 526 kts 91°
2026-04-24 21:25 39.89898 59.87984 32867 ft 526 kts 91°
2026-04-24 21:26 39.89817 59.97496 32885 ft 525 kts 91°
2026-04-24 21:26 39.89730 60.06858 32887 ft 525 kts 91°
2026-04-24 21:27 39.89636 60.16301 32888 ft 525 kts 91°
2026-04-24 21:27 39.89481 60.25808 32882 ft 525 kts 95°
2026-04-24 21:28 39.88360 60.35154 32886 ft 522 kts 106°
2026-04-24 21:28 39.86527 60.44292 32896 ft 522 kts 107°
2026-04-24 21:29 39.84700 60.53361 32895 ft 522 kts 106°
2026-04-24 21:29 39.82890 60.62513 32897 ft 522 kts 106°
2026-04-24 21:30 39.81093 60.71666 32896 ft 523 kts 106°
2026-04-24 21:30 39.79288 60.80833 32903 ft 523 kts 106°
2026-04-24 21:31 39.77485 60.89942 32887 ft 524 kts 106°
2026-04-24 21:31 39.75661 60.99099 32903 ft 524 kts 106°
2026-04-24 21:32 39.73854 61.08132 32898 ft 524 kts 106°
2026-04-24 21:32 39.72012 61.17298 32902 ft 524 kts 106°
2026-04-24 21:33 39.70175 61.26401 32904 ft 525 kts 106°
2026-04-24 21:33 39.68318 61.35567 32898 ft 525 kts 106°
2026-04-24 21:34 39.66454 61.44721 32906 ft 525 kts 106°
2026-04-24 21:34 39.64582 61.53875 32907 ft 525 kts 106°
2026-04-24 21:35 39.62715 61.62969 32910 ft 525 kts 106°
2026-04-24 21:35 39.60828 61.72117 32909 ft 525 kts 106°
2026-04-24 21:36 39.58935 61.81255 32909 ft 525 kts 107°
2026-04-24 21:36 39.57041 61.90355 32910 ft 525 kts 107°
2026-04-24 21:37 39.55133 61.99485 32909 ft 525 kts 107°
2026-04-24 21:37 39.53262 62.08402 32913 ft 525 kts 107°
2026-04-24 21:38 39.51340 62.17521 32900 ft 525 kts 107°
2026-04-24 21:38 39.49413 62.26631 32912 ft 525 kts 107°
2026-04-24 21:39 39.47476 62.35743 32914 ft 525 kts 107°
2026-04-24 21:39 39.45544 62.44794 32913 ft 525 kts 107°
2026-04-24 21:40 39.43591 62.53908 32910 ft 526 kts 107°
2026-04-24 21:40 39.41630 62.63018 32901 ft 526 kts 107°
2026-04-24 21:41 39.39663 62.72121 32911 ft 526 kts 107°
2026-04-24 21:41 39.37688 62.81221 32907 ft 526 kts 107°
2026-04-24 21:42 39.35718 62.90263 32910 ft 526 kts 107°
2026-04-24 21:42 39.33726 62.99364 32894 ft 526 kts 107°
2026-04-24 21:43 39.31761 63.08311 32907 ft 527 kts 107°
2026-04-24 21:43 39.29754 63.17405 32908 ft 527 kts 107°
2026-04-24 21:44 39.27753 63.26438 32911 ft 527 kts 107°
2026-04-24 21:44 39.25729 63.35537 32911 ft 528 kts 107°
2026-04-24 21:45 39.23697 63.44639 32909 ft 528 kts 107°
2026-04-24 21:45 39.21657 63.53735 32914 ft 528 kts 107°
2026-04-24 21:46 39.19955 63.61300 32912 ft 528 kts 108°
2026-04-24 21:46 39.17567 63.71867 32914 ft 528 kts 108°
2026-04-24 21:47 39.15839 63.79484 32915 ft 528 kts 108°
2026-04-24 21:47 39.13786 63.88504 32904 ft 528 kts 108°
2026-04-24 21:48 39.11712 63.97575 32925 ft 528 kts 108°
2026-04-24 21:48 39.09664 64.06503 32923 ft 528 kts 108°
2026-04-24 21:49 39.07251 64.17031 32928 ft 528 kts 107°
2026-04-24 21:49 39.05639 64.24601 32926 ft 528 kts 106°
2026-04-24 21:50 39.03756 64.33722 32913 ft 527 kts 106°
2026-04-24 21:50 39.01855 64.42819 32929 ft 527 kts 107°
2026-04-24 21:51 38.99931 64.51884 32926 ft 526 kts 107°
2026-04-24 21:51 38.98007 64.60891 32930 ft 526 kts 107°
2026-04-24 21:52 38.96066 64.69945 32930 ft 526 kts 107°
2026-04-24 21:52 38.94121 64.78990 32920 ft 525 kts 107°
2026-04-24 21:53 38.92169 64.88027 32932 ft 525 kts 107°
2026-04-24 21:53 38.90215 64.97042 32943 ft 524 kts 107°
2026-04-24 21:54 38.88283 65.05917 32943 ft 524 kts 107°
2026-04-24 21:54 38.86324 65.14857 32940 ft 524 kts 107°
2026-04-24 21:55 38.84339 65.23857 32944 ft 524 kts 107°
2026-04-24 21:55 38.82351 65.32848 32941 ft 524 kts 107°
2026-04-24 21:56 38.80369 65.41777 32952 ft 524 kts 107°
2026-04-24 21:56 38.78367 65.50766 32951 ft 525 kts 107°
2026-04-24 21:57 38.76353 65.59769 32949 ft 526 kts 107°
2026-04-24 21:57 38.74330 65.68773 32954 ft 526 kts 108°
2026-04-24 21:58 38.72298 65.77787 32939 ft 527 kts 108°
2026-04-24 21:58 38.70274 65.86730 32954 ft 527 kts 108°
2026-04-24 21:59 38.68225 65.95745 32965 ft 527 kts 108°
2026-04-24 21:59 38.67216 66.00174 32784 ft 529 kts 108°
2026-04-24 21:59 38.66202 66.04616 32333 ft 527 kts 108°
2026-04-24 21:59 38.65179 66.09092 31895 ft 521 kts 108°
2026-04-24 22:00 38.64167 66.13511 31480 ft 515 kts 108°
2026-04-24 22:00 38.63163 66.17883 31047 ft 510 kts 108°
2026-04-24 22:00 38.62288 66.22192 30640 ft 507 kts 103°
2026-04-24 22:00 38.61695 66.26625 30247 ft 504 kts 97°
2026-04-24 22:01 38.61442 66.31077 29817 ft 500 kts 92°
2026-04-24 22:01 38.61321 66.35503 29351 ft 497 kts 92°
2026-04-24 22:01 38.61206 66.39908 28896 ft 494 kts 92°
2026-04-24 22:01 38.61081 66.44274 28441 ft 490 kts 93°
2026-04-24 22:02 38.60942 66.48617 28004 ft 487 kts 93°
2026-04-24 22:02 38.60793 66.52927 27586 ft 484 kts 93°
2026-04-24 22:02 38.60641 66.57152 27153 ft 481 kts 93°
2026-04-24 22:02 38.60484 66.61408 26721 ft 478 kts 93°
2026-04-24 22:03 38.60328 66.65633 26320 ft 474 kts 93°
2026-04-24 22:03 38.60172 66.69832 25905 ft 471 kts 93°
2026-04-24 22:03 38.60017 66.73997 25527 ft 467 kts 94°
2026-04-24 22:03 38.59862 66.78120 25259 ft 461 kts 94°
2026-04-24 22:04 38.59708 66.82197 24963 ft 456 kts 94°
2026-04-24 22:04 38.59558 66.86174 24666 ft 452 kts 94°
2026-04-24 22:04 38.59406 66.90160 24421 ft 448 kts 94°
2026-04-24 22:04 38.59253 66.94141 24155 ft 450 kts 94°
2026-04-24 22:05 38.59098 66.98143 23893 ft 452 kts 94°
2026-04-24 22:05 38.58945 67.02036 23622 ft 451 kts 94°
2026-04-24 22:05 38.58788 67.06027 23326 ft 449 kts 94°
2026-04-24 22:05 38.58631 67.10003 22988 ft 447 kts 94°
2026-04-24 22:06 38.58472 67.13957 22674 ft 445 kts 94°
2026-04-24 22:06 38.58313 67.17897 22376 ft 442 kts 94°
2026-04-24 22:06 38.58155 67.21759 22079 ft 440 kts 94°
2026-04-24 22:06 38.57995 67.25654 21775 ft 437 kts 94°
2026-04-24 22:07 38.57834 67.29519 21454 ft 435 kts 94°
2026-04-24 22:07 38.57674 67.33358 21206 ft 430 kts 94°
2026-04-24 22:07 38.57515 67.37153 20936 ft 426 kts 94°
2026-04-24 22:07 38.57357 67.40909 20631 ft 420 kts 94°
2026-04-24 22:08 38.57202 67.44606 20315 ft 414 kts 94°
2026-04-24 22:08 38.57046 67.48249 20038 ft 409 kts 94°
2026-04-24 22:08 38.56891 67.51860 19734 ft 406 kts 94°
2026-04-24 22:08 38.56734 67.55447 19444 ft 403 kts 94°
2026-04-24 22:09 38.56579 67.58959 19161 ft 400 kts 95°
2026-04-24 22:09 38.56423 67.62495 18888 ft 397 kts 94°
2026-04-24 22:09 38.56267 67.66016 18617 ft 396 kts 94°
2026-04-24 22:09 38.56111 67.69515 18314 ft 394 kts 95°
2026-04-24 22:10 38.55954 67.73001 17985 ft 392 kts 94°
2026-04-24 22:10 38.55795 67.76467 17652 ft 390 kts 94°
2026-04-24 22:10 38.55631 67.79920 17321 ft 388 kts 94°
2026-04-24 22:10 38.55465 67.83346 17017 ft 386 kts 94°
2026-04-24 22:11 38.55304 67.86646 16723 ft 385 kts 94°
2026-04-24 22:11 38.55137 67.90050 16428 ft 384 kts 94°
2026-04-24 22:11 38.54971 67.93445 16127 ft 382 kts 94°
2026-04-24 22:11 38.54804 67.96832 15827 ft 381 kts 94°
2026-04-24 22:12 38.54641 68.00148 15306 ft 386 kts 94°
2026-04-24 22:12 38.54473 68.03540 14679 ft 389 kts 94°
2026-04-24 22:12 38.54307 68.06986 14089 ft 390 kts 92°
2026-04-24 22:12 38.54262 68.10449 13414 ft 390 kts 90°
2026-04-24 22:13 38.54271 68.13921 12751 ft 391 kts 89°
2026-04-24 22:13 38.54293 68.17342 12109 ft 391 kts 89°
2026-04-24 22:13 38.54314 68.20816 11465 ft 391 kts 90°
2026-04-24 22:13 38.54329 68.24298 10740 ft 393 kts 90°
2026-04-24 22:14 38.54338 68.27777 10010 ft 385 kts 90°
2026-04-24 22:14 38.54344 68.31113 9203 ft 366 kts 90°
2026-04-24 22:14 38.54347 68.34287 8420 ft 350 kts 90°
2026-04-24 22:14 38.54348 68.37340 7662 ft 337 kts 90°
2026-04-24 22:15 38.54348 68.40269 7112 ft 321 kts 90°
2026-04-24 22:15 38.54397 68.43005 6885 ft 296 kts 88°
2026-04-24 22:15 38.54455 68.45508 6694 ft 275 kts 89°
2026-04-24 22:15 38.54467 68.47837 6664 ft 249 kts 90°
2026-04-24 22:16 38.54463 68.49957 6683 ft 230 kts 90°
2026-04-24 22:16 38.54457 68.51908 6712 ft 209 kts 90°
2026-04-24 22:16 38.54451 68.53667 6575 ft 187 kts 90°
2026-04-24 22:16 38.54446 68.55258 6353 ft 172 kts 90°
2026-04-24 22:17 38.54442 68.56722 6125 ft 160 kts 90°
2026-04-24 22:17 38.54438 68.58146 5932 ft 160 kts 90°
2026-04-24 22:17 38.54434 68.59548 5734 ft 160 kts 89°
2026-04-24 22:17 38.54430 68.60962 5522 ft 158 kts 90°
2026-04-24 22:18 38.54426 68.62354 5323 ft 156 kts 89°
2026-04-24 22:18 38.54422 68.63734 5129 ft 155 kts 89°
2026-04-24 22:18 38.54418 68.65109 4955 ft 155 kts 89°
2026-04-24 22:18 38.54389 68.66672 4978 ft 195 kts 91°
2026-04-24 22:19 38.54309 68.68426 4807 ft 189 kts 91°
2026-04-24 22:19 38.54288 68.70206 4491 ft 201 kts 88°
2026-04-24 22:19 38.54361 68.71956 3992 ft 192 kts 86°
2026-04-24 22:19 38.54393 68.73529 3787 ft 165 kts 87°
2026-04-24 22:20 38.54377 68.74899 3518 ft 148 kts 89°
2026-04-24 22:20 38.54392 68.76170 3314 ft 146 kts 88°
2026-04-24 22:20 38.54380 68.77446 3083 ft 142 kts 90°
2026-04-24 22:20 38.54385 68.78715 2914 ft 143 kts 88°
2026-04-24 22:21 38.54381 68.79977 2721 ft 142 kts 89°
2026-04-24 22:21 38.54374 68.81189 2581 ft 125 kts 90°
2026-04-24 22:21 38.54369 68.82122 2580 ft 83 kts 90°
2026-04-24 22:21 38.54370 68.82662 2579 ft 39 kts 90°
2026-04-24 22:22 38.54371 68.82870 2580 ft 19 kts 91°
2026-04-24 22:22 38.54367 68.83040 2580 ft 19 kts 91°
2026-04-24 22:22 38.54372 68.83211 2579 ft 19 kts 73°
2026-04-24 22:22 38.54451 68.83290 2582 ft 13 kts
2026-04-24 22:23 38.54544 68.83291 2582 ft 13 kts
2026-04-24 22:23 38.54636 68.83290 2580 ft 13 kts 359°
2026-04-24 22:23 38.54689 68.83238 2580 ft 5 kts 268°
2026-04-24 22:23 38.54688 68.83193 2578 ft 5 kts 268°
2026-04-24 22:24 38.54686 68.83136 2580 ft 12 kts 268°
2026-04-24 22:24 38.54686 68.82918 2580 ft 34 kts 270°
2026-04-24 22:24 38.54687 68.82561 2580 ft 46 kts 271°
2026-04-24 22:24 38.54698 68.82116 2586 ft 54 kts 270°
2026-04-24 22:25 38.54698 68.81892 2586 ft 21 kts 270°
2026-04-24 22:25 38.54698 68.81748 2586 ft 7 kts 270°
2026-04-24 22:25 38.54698 68.81622 2586 ft 20 kts 270°
2026-04-24 22:25 38.54721 68.81523 2579 ft 0 kts 323°
2026-04-24 22:26 38.54737 68.81519 2581 ft 7 kts 351°
2026-04-24 22:26 38.54793 68.81515 2579 ft 1 kts 358°
2026-04-24 22:26 38.54798 68.81515 2580 ft 0 kts 358°